"2010-10-15 00:00:00",247981,2.66,148.1,1.232,0.063,18.01,107.9285,19.58,20.42,16.29,0,110.9,13.18,20.40,110.1
"2010-10-15 00:00:30",247982,2.711,149.8,1.37,0.053,17.98,107.9285,19.58,20.42,16.18,0,110.9,13.18,20.40,111.8
"2010-10-15 00:01:00",247983,2.675,149,1.398,0.04,17.96,107.9285,19.58,20.41,16.09,0,110.9,13.18,20.40,111.0
"2010-10-15 00:01:30",247984,2.714,147.1,2.164,0.058,18.04,107.9285,19.58,20.41,16.04,0,110.9,13.18,20.40,109.1
"2010-10-15 00:02:00",247985,2.557,145.6,2.957,0.07,18.29,107.9276,19.57,20.41,16.02,0,110.9,13.18,20.39,107.6
"2010-10-15 00:02:30",247986,2.721,142.2,0.98,0.092,18.27,107.9259,19.57,20.41,15.98,0,110.9,13.18,20.39,104.2
"2010-10-15 00:03:00",247987,2.655,142.4,1.128,0.022,18.41,107.9223,19.56,20.4,15.92,0,110.9,13.19,20.38,104.4
"2010-10-15 00:03:30",247988,2.609,141.3,1.541,0.066,18.4,107.9178,19.55,20.41,15.93,0,110.9,13.19,20.37,103.3
"2010-10-15 00:04:00",247989,2.643,144.7,2.319,0.073,18.28,107.911,19.53,20.41,15.97,0,110.9,13.19,20.35,106.7
"2010-10-15 00:04:30",247990,2.719,144,1.471,0.06,18.23,107.9018,19.51,20.4,15.98,0,110.9,13.19,20.33,106.0
"2010-10-15 00:05:00",247991,2.826,143.4,1.114,0.104,18.16,107.8984,19.5,20.39,15.97,0,110.9,13.19,20.32,105.4
"2010-10-15 00:05:30",247992,2.834,144.5,1.176,0.05,18.17,107.8956,19.49,20.37,15.96,0,110.9,13.19,20.31,106.5
"2010-10-15 00:06:00",247993,2.943,145,1.644,0.044,18.25,107.895,19.49,20.4,15.99,0,110.8,13.19,20.31,107.0
"2010-10-15 00:06:30",247994,2.92,145.4,1.198,0.042,18.27,107.8947,19.49,20.39,16,0,110.8,13.19,20.31,107.4
"2010-10-15 00:07:00",247995,2.878,144.1,0.961,0.064,18.19,107.8947,19.49,20.39,16.01,0,110.9,13.19,20.31,106.1
"2010-10-15 00:07:30",247996,2.898,146.7,1.876,0.03,18.3,107.8947,19.49,20.38,16,0,110.8,13.19,20.31,108.7
"2010-10-15 00:08:00",247997,2.776,149.8,1.872,0.074,18.2,107.8947,19.49,20.37,15.98,0,110.8,13.19,20.31,111.8
"2010-10-15 00:08:30",247998,2.708,152.2,1.062,0.049,18.23,107.8953,19.49,20.39,15.93,0,110.8,13.19,20.31,114.2
"2010-10-15 00:09:00",247999,2.775,150.6,1.136,0.125,18.34,107.8953,19.49,20.39,15.91,0,110.8,13.19,20.31,112.6
"2010-10-15 00:09:30",248000,2.919,151.5,1.157,0.049,18.58,107.8959,19.49,20.4,15.89,0,110.9,13.19,20.31,113.5
"2010-10-15 00:10:00",248001,2.833,152.3,1.571,0.041,18.51,107.8969,19.5,20.4,15.86,0,110.8,13.18,20.32,114.3
"2010-10-15 00:10:30",248002,2.895,154.1,1.188,0.061,18.65,107.8992,19.5,20.4,15.86,0,110.8,13.18,20.32,116.1
"2010-10-15 00:11:00",248003,2.896,151.5,1.079,0.063,18.64,107.9007,19.51,20.4,15.84,0,110.8,13.18,20.32,113.5
"2010-10-15 00:11:30",248004,2.91,148.7,1.545,0.088,18.51,107.8981,19.5,20.4,15.91,0,110.8,13.18,20.32,110.7
"2010-10-15 00:12:00",248005,2.777,149,1.46,0.096,18.36,107.9032,19.51,20.39,15.95,0,110.8,13.18,20.33,111.0
"2010-10-15 00:12:30",248006,2.922,148.9,2.6,0.06,18.68,107.9029,19.51,20.39,15.92,0,110.8,13.18,20.33,110.9
"2010-10-15 00:13:00",248007,2.985,153.5,3.044,0.067,18.8,107.9029,19.51,20.39,15.88,0,110.8,13.18,20.33,115.5
"2010-10-15 00:13:30",248008,2.949,155.3,1.146,0.046,18.92,107.906,19.52,20.39,15.81,0,110.8,13.18,20.34,117.3
"2010-10-15 00:14:00",248009,2.872,154.9,0.877,0.053,18.95,107.9114,19.53,20.4,15.81,0,110.8,13.18,20.35,116.9
"2010-10-15 00:14:30",248010,2.862,149.6,3.837,0.092,18.7,107.9151,19.54,20.39,15.88,0,110.8,13.18,20.36,111.6
"2010-10-15 00:15:00",248011,2.764,148.4,1.993,0.082,18.42,107.9158,19.54,20.39,15.95,0,110.8,13.19,20.36,110.4
"2010-10-15 00:15:30",248012,2.839,152.4,4.133,0.108,18.76,107.9094,19.53,20.38,15.9,0,110.8,13.19,20.35,114.4
"2010-10-15 00:16:00",248013,2.703,156,1.355,0.103,18.69,107.9041,19.51,20.37,15.88,0,110.8,13.19,20.33,118.0
"2010-10-15 00:16:30",248014,2.827,152.8,1.909,0.071,18.78,107.9113,19.53,20.38,15.92,0,110.8,13.19,20.35,114.8
"2010-10-15 00:17:00",248015,2.86,150.6,1.094,0.107,18.79,107.91,19.53,20.38,16.02,0,110.8,13.19,20.35,112.6
"2010-10-15 00:17:30",248016,2.736,152.8,1.751,0.045,18.58,107.9061,19.52,20.38,16.01,0,110.8,13.2,20.34,114.8
"2010-10-15 00:18:00",248017,2.801,150.2,1.458,0.066,18.63,107.9008,19.51,20.38,16.12,0,110.8,13.2,20.33,112.2
"2010-10-15 00:18:30",248018,2.791,149.4,1.282,0.079,18.53,107.8977,19.5,20.37,16.17,0,110.8,13.2,20.32,111.4
"2010-10-15 00:19:00",248019,2.749,150.5,0.95,0.052,18.47,107.8974,19.5,20.36,16.19,0,110.8,13.2,20.32,112.5
"2010-10-15 00:19:30",248020,2.826,148.6,1.397,0.063,18.57,107.8974,19.5,20.36,16.15,0,110.8,13.2,20.32,110.6
"2010-10-15 00:20:00",248021,2.704,148.6,1.271,0.068,18.43,107.8974,19.5,20.36,16.14,0,110.8,13.2,20.32,110.6
"2010-10-15 00:20:30",248022,2.616,149.1,1.067,0.053,18.4,107.8974,19.5,20.34,16.15,0,110.8,13.2,20.32,111.1
"2010-10-15 00:21:00",248023,2.604,149.4,1,0.051,18.39,107.8971,19.5,20.34,16.14,0,110.8,13.2,20.32,111.4
"2010-10-15 00:21:30",248024,2.66,147.7,1.177,0.067,18.36,107.8892,19.48,20.33,16.06,0,110.8,13.2,20.30,109.7
"2010-10-15 00:22:00",248025,2.808,149.1,0.973,0.053,18.57,107.8766,19.44,20.33,16.05,0,110.8,13.2,20.26,111.1
"2010-10-15 00:22:30",248026,2.785,149.5,0.832,0.043,18.48,107.8715,19.43,20.32,16.06,0,110.8,13.2,20.25,111.5
"2010-10-15 00:23:00",248027,2.676,148.5,0.78,0.038,18.34,107.8656,19.41,20.32,16.06,0,110.8,13.2,20.23,110.5
"2010-10-15 00:23:30",248028,2.699,146.8,1.654,0.028,18.39,107.8639,19.41,20.32,16.09,0,110.8,13.2,20.23,108.8
"2010-10-15 00:24:00",248029,2.766,146.5,1.785,0.055,18.51,107.8636,19.41,20.32,16.09,0,110.8,13.2,20.23,108.5
"2010-10-15 00:24:30",248030,2.873,149.3,0.524,0.031,18.8,107.8636,19.41,20.3,16.14,0,110.8,13.2,20.23,111.3
"2010-10-15 00:25:00",248031,2.882,148.2,0.996,0.027,18.79,107.8643,19.41,20.29,16.15,0,110.8,13.2,20.23,110.2
"2010-10-15 00:25:30",248032,2.985,147.3,0.956,0.026,19.04,107.8635,19.41,20.29,16.18,0,110.8,13.21,20.23,109.3
"2010-10-15 00:26:00",248033,3.015,147.7,0.95,0.033,19.08,107.8656,19.41,20.29,16.24,0,110.8,13.21,20.23,109.7
"2010-10-15 00:26:30",248034,3.034,147.6,0.566,0.02,19.11,107.8679,19.42,20.29,16.25,0,110.8,13.2,20.24,109.6
"2010-10-15 00:27:00",248035,2.992,146.2,0.91,0.031,19.02,107.8738,19.44,20.28,16.22,0,110.8,13.2,20.26,108.2
"2010-10-15 00:27:30",248036,3.027,146,0.536,0.03,19.06,107.8664,19.42,20.28,16.12,0,110.7,13.2,20.24,108.0
"2010-10-15 00:28:00",248037,3.026,147.5,0.803,0.027,19.11,107.8614,19.4,20.25,16.16,0,110.7,13.2,20.22,109.5
"2010-10-15 00:28:30",248038,3.039,147.2,0.984,0.024,19.09,107.8596,19.4,20.27,16.15,0,110.7,13.2,20.22,109.2
"2010-10-15 00:29:00",248039,3.086,145.4,1.128,0.042,18.97,107.8623,19.41,20.26,16.06,0,110.7,13.2,20.23,107.4
"2010-10-15 00:29:30",248040,3.166,144.4,0.832,0.05,18.87,107.8636,19.41,20.27,16.05,0,110.7,13.2,20.23,106.4
"2010-10-15 00:30:00",248041,3.059,142.3,0.531,0.056,18.59,107.8657,19.42,20.27,16.07,0,110.7,13.2,20.23,104.3
"2010-10-15 00:30:30",248042,2.991,142.1,0.489,0.023,18.47,107.8663,19.42,20.26,16.05,0,110.7,13.2,20.24,104.1
"2010-10-15 00:31:00",248043,3.036,141.3,0.645,0.033,18.45,107.8663,19.42,20.25,16.01,0,110.7,13.2,20.24,103.3
"2010-10-15 00:31:30",248044,2.945,141.3,0.858,0.05,18.28,107.8655,19.41,20.26,16.03,0,110.7,13.21,20.23,103.3
"2010-10-15 00:32:00",248045,2.789,143.6,1.541,0.062,18.48,107.8632,19.41,20.25,16.06,0,110.7,13.21,20.23,105.6
"2010-10-15 00:32:30",248046,2.808,139.9,1.142,0.063,18.52,107.8548,19.39,20.24,16.03,0,110.7,13.21,20.21,101.9
"2010-10-15 00:33:00",248047,2.771,135.8,2.794,0.069,18.7,107.8418,19.35,20.24,16.06,0,110.7,13.21,20.17,97.8
"2010-10-15 00:33:30",248048,2.781,131.4,0.808,0.065,18.66,107.8339,19.33,20.23,16.24,0,110.7,13.21,20.15,93.4
"2010-10-15 00:34:00",248049,2.782,132.6,1.479,0.066,18.73,107.8325,19.33,20.22,16.29,0,110.7,13.22,20.15,94.6
"2010-10-15 00:34:30",248050,2.885,133.4,0.666,0.043,18.81,107.8325,19.33,20.21,16.16,0,110.7,13.21,20.15,95.4
"2010-10-15 00:35:00",248051,3.044,133.4,1.626,0.053,18.69,107.8317,19.33,20.2,16.21,0,110.7,13.22,20.15,95.4
"2010-10-15 00:35:30",248052,3.132,133.7,1.202,0.055,18.61,107.8176,19.29,20.19,16.42,0,110.7,13.22,20.11,95.7
"2010-10-15 00:36:00",248053,3.11,134.3,1.194,0.042,18.66,107.8019,19.25,20.18,16.47,0,110.7,13.22,20.07,96.3
"2010-10-15 00:36:30",248054,3.196,133.4,0.688,0.09,18.47,107.7988,19.24,20.17,16.61,0,110.7,13.22,20.06,95.4
"2010-10-15 00:37:00",248055,3.411,134.9,1.243,0.042,18.53,107.8,19.25,20.16,16.57,0,110.7,13.22,20.07,96.9
"2010-10-15 00:37:30",248056,3.413,136.5,1.76,0.121,18.56,107.803,19.25,20.15,16.57,0,110.7,13.22,20.07,98.5
"2010-10-15 00:38:00",248057,3.601,134,1.051,0.064,18.63,107.8044,19.26,20.14,16.54,0,110.7,13.22,20.08,96.0
"2010-10-15 00:38:30",248058,3.647,136.7,0.7,0.056,18.53,107.7911,19.22,20.14,16.53,0,110.7,13.22,20.04,98.7
"2010-10-15 00:39:00",248059,3.575,136.3,0.667,0.049,18.44,107.7786,19.19,20.11,16.54,0,110.7,13.22,20.01,98.3
"2010-10-15 00:39:30",248060,3.602,136,0.787,0.028,18.51,107.7771,19.19,20.12,16.55,0,110.7,13.22,20.01,98.0
"2010-10-15 00:40:00",248061,3.494,135.4,0.901,0.074,18.55,107.777,19.19,20.11,16.57,0,110.7,13.23,20.01,97.4
"2010-10-15 00:40:30",248062,3.444,136.5,0.928,0.082,18.45,107.7796,19.19,20.1,16.56,0,110.7,13.23,20.01,98.5
"2010-10-15 00:41:00",248063,3.535,135.5,1.136,0.059,18.47,107.7847,19.21,20.1,16.52,0,110.7,13.23,20.03,97.5
"2010-10-15 00:41:30",248064,3.543,137.3,0.462,0.07,18.45,107.7893,19.22,20.1,16.51,0,110.7,13.23,20.04,99.3
"2010-10-15 00:42:00",248065,3.631,136.8,0.887,0.065,18.47,107.7923,19.23,20.09,16.5,0,110.7,13.23,20.05,98.8
"2010-10-15 00:42:30",248066,3.555,137,0.498,0.05,18.38,107.7926,19.23,20.08,16.49,0,110.7,13.23,20.05,99.0
"2010-10-15 00:43:00",248067,3.574,136.9,0.745,0.047,18.4,107.7938,19.23,20.09,16.49,0,110.7,13.23,20.05,98.9
"2010-10-15 00:43:30",248068,3.637,136.8,0.717,0.063,18.47,107.7954,19.23,20.07,16.48,0,110.7,13.23,20.05,98.8
"2010-10-15 00:44:00",248069,3.628,137.1,1.363,0.08,18.54,107.7938,19.23,20.08,16.49,0,110.7,13.22,20.05,99.1
"2010-10-15 00:44:30",248070,3.618,135.8,0.882,0.082,18.57,107.7893,19.22,20.07,16.48,0,110.7,13.22,20.04,97.8
"2010-10-15 00:45:00",248071,3.691,136.5,0.79,0.042,18.59,107.7809,19.2,20.07,16.46,0,110.7,13.22,20.02,98.5
"2010-10-15 00:45:30",248072,3.748,137,0.292,0.053,18.67,107.7778,19.19,20.05,16.43,0,110.7,13.22,20.01,99.0
"2010-10-15 00:46:00",248073,3.694,136.8,0.554,0.034,18.61,107.7764,19.19,20.07,16.42,0,110.7,13.22,20.01,98.8
"2010-10-15 00:46:30",248074,3.628,137.9,0.596,0.066,18.55,107.7761,19.19,20.06,16.45,0,110.7,13.22,20.00,99.9
"2010-10-15 00:47:00",248075,3.679,139.2,0.531,0.036,18.57,107.7766,19.19,20.07,16.41,0,110.7,13.22,20.01,101.2
"2010-10-15 00:47:30",248076,3.688,140.5,0.523,0.037,18.58,107.7778,19.19,20.07,16.4,0,110.7,13.22,20.01,102.5
"2010-10-15 00:48:00",248077,3.739,140.9,0.452,0.033,18.64,107.78,19.2,20.07,16.34,0,110.7,13.22,20.01,102.9
"2010-10-15 00:48:30",248078,3.665,140.6,0.633,0.047,18.52,107.7854,19.21,20.09,16.28,0,110.7,13.23,20.03,102.6
"2010-10-15 00:49:00",248079,3.518,141.1,0.583,0.054,18.71,107.7924,19.23,20.09,16.3,0,110.7,13.23,20.05,103.1
"2010-10-15 00:49:30",248080,3.461,139.1,0.898,0.024,18.66,107.7961,19.24,20.09,16.3,0,110.7,13.23,20.06,101.1
"2010-10-15 00:50:00",248081,3.452,137.6,0.335,0.03,18.42,107.7882,19.22,20.08,16.33,0,110.7,13.23,20.04,99.6
"2010-10-15 00:50:30",248082,3.366,136.5,0.491,0.041,18.49,107.7764,19.19,20.09,16.38,0,110.7,13.23,20.01,98.5
"2010-10-15 00:51:00",248083,3.289,132.8,0.96,0.037,18.55,107.7693,19.17,20.08,16.4,0,110.7,13.23,19.99,94.8
"2010-10-15 00:51:30",248084,3.388,133.4,0.62,0.041,18.73,107.7676,19.16,20.08,16.41,0,110.7,13.23,19.98,95.4
"2010-10-15 00:52:00",248085,3.434,132.3,0.827,0.048,18.75,107.7683,19.17,20.06,16.45,0,110.7,13.24,19.98,94.3
"2010-10-15 00:52:30",248086,3.536,132,0.707,0.026,18.84,107.7627,19.15,20.07,16.49,0,110.7,13.24,19.97,94.0
"2010-10-15 00:53:00",248087,3.445,135.1,0.654,0.043,18.48,107.7435,19.1,20.04,16.47,0,110.7,13.24,19.92,97.1
"2010-10-15 00:53:30",248088,3.443,135.4,0.498,0.033,18.42,107.7405,19.09,20.02,16.51,0,110.7,13.24,19.91,97.4
"2010-10-15 00:54:00",248089,3.527,133.4,0.662,0.051,18.68,107.7408,19.09,20.03,16.51,0,110.7,13.24,19.91,95.4
"2010-10-15 00:54:30",248090,3.678,132.8,0.434,0.037,18.39,107.7402,19.09,20.01,16.56,0,110.7,13.24,19.91,94.8
"2010-10-15 00:55:00",248091,3.72,134.3,0.458,0.026,18.33,107.7421,19.1,19.99,16.59,0,110.7,13.24,19.92,96.3
"2010-10-15 00:55:30",248092,3.756,135.5,0.962,0.035,18.46,107.7448,19.1,19.99,16.69,0,110.6,13.24,19.92,97.5
"2010-10-15 00:56:00",248093,3.658,140.1,1.817,0.046,18.71,107.7465,19.11,19.98,16.61,0,110.6,13.24,19.93,102.1
"2010-10-15 00:56:30",248094,3.531,142.3,0.51,0.019,18.71,107.7506,19.12,19.98,16.67,0,110.6,13.24,19.94,104.3
"2010-10-15 00:57:00",248095,3.609,142.8,0.848,0.029,18.75,107.7563,19.13,19.99,16.68,0,110.6,13.24,19.95,104.8
"2010-10-15 00:57:30",248096,3.633,144.5,0.619,0.032,18.74,107.7569,19.14,19.99,16.74,0,110.6,13.24,19.95,106.5
"2010-10-15 00:58:00",248097,3.719,145.6,0.196,0.028,18.69,107.7603,19.14,19.99,16.76,0,110.6,13.24,19.96,107.6
"2010-10-15 00:58:30",248098,3.763,145.5,0.044,0.037,18.65,107.7608,19.15,20.01,16.71,0,110.6,13.25,19.96,107.5
"2010-10-15 00:59:00",248099,3.84,145,0.632,0.032,18.68,107.7629,19.15,20.01,16.66,0,110.6,13.25,19.97,107.0
"2010-10-15 00:59:30",248100,3.881,146,0.658,0.027,18.69,107.7638,19.15,20.03,16.62,0,110.6,13.24,19.97,108.0
"2010-10-15 01:00:00",248101,3.946,145.1,0.529,0.019,18.68,107.7668,19.16,20.03,16.65,0,110.6,13.25,19.98,107.1
"2010-10-15 01:00:30",248102,3.916,144.2,0.603,0.032,18.52,107.7678,19.16,20.01,16.69,0,110.6,13.24,19.98,106.2
"2010-10-15 01:01:00",248103,3.801,142.7,0.765,0.032,18.49,107.7672,19.16,20.02,16.68,0,110.6,13.24,19.98,104.7
"2010-10-15 01:01:30",248104,3.795,139.1,1.221,0.039,18.8,107.7688,19.17,20.02,16.67,0,110.6,13.23,19.99,101.1
"2010-10-15 01:02:00",248105,3.861,137.2,0.46,0.033,18.84,107.7697,19.17,20.02,16.81,0,110.6,13.23,19.99,99.2
"2010-10-15 01:02:30",248106,3.794,139.7,0.609,0.041,18.73,107.7683,19.17,20,16.76,0,110.6,13.24,19.98,101.7
"2010-10-15 01:03:00",248107,3.76,139.7,0.18,0.031,18.77,107.7615,19.15,19.99,16.76,0,110.6,13.24,19.97,101.7
"2010-10-15 01:03:30",248108,3.818,139.8,0.264,0.002,18.59,107.7522,19.12,20,16.79,0,110.6,13.23,19.94,101.8
"2010-10-15 01:04:00",248109,3.818,140.5,0.539,0.002,18.57,107.7469,19.11,19.99,16.83,0,110.6,13.24,19.93,102.5
"2010-10-15 01:04:30",248110,3.786,140.2,0.585,0.039,18.65,107.7452,19.11,19.99,16.83,0,110.6,13.24,19.92,102.2
"2010-10-15 01:05:00",248111,3.747,138.9,0.594,0.025,18.81,107.7446,19.1,19.98,16.87,0,110.6,13.24,19.92,100.9
"2010-10-15 01:05:30",248112,3.739,138.8,0.422,0.014,18.85,107.7427,19.1,19.99,16.93,0,110.6,13.24,19.92,100.8
"2010-10-15 01:06:00",248113,3.761,139.8,0.672,0.034,18.71,107.7413,19.1,19.99,16.9,0,110.6,13.25,19.91,101.8
"2010-10-15 01:06:30",248114,3.771,139.4,0.414,0.036,18.77,107.7424,19.1,19.97,16.89,0,110.6,13.25,19.92,101.4
"2010-10-15 01:07:00",248115,3.78,138.6,0.39,0.038,18.86,107.7404,19.09,19.97,16.96,0,110.6,13.25,19.91,100.6
"2010-10-15 01:07:30",248116,3.826,137.7,0.4,0.027,18.85,107.7399,19.09,19.96,17.03,0,110.6,13.25,19.91,99.7
"2010-10-15 01:08:00",248117,3.899,137.4,0.603,0.039,18.8,107.737,19.09,19.99,16.94,0,110.6,13.25,19.90,99.4
"2010-10-15 01:08:30",248118,3.975,137.2,0.448,0.038,18.66,107.7365,19.08,19.97,16.79,0,110.6,13.25,19.90,99.2
"2010-10-15 01:09:00",248119,4.008,137.4,0.396,0.029,18.58,107.7365,19.08,19.96,16.75,0,110.6,13.25,19.90,99.4
"2010-10-15 01:09:30",248120,3.862,139.2,0.66,0.043,18.6,107.7365,19.08,19.97,16.78,0,110.6,13.25,19.90,101.2
"2010-10-15 01:10:00",248121,3.869,139.4,0.45,0.024,18.57,107.7365,19.08,19.97,16.76,0,110.6,13.25,19.90,101.4
"2010-10-15 01:10:30",248122,3.887,140.2,0.527,0.012,18.47,107.7365,19.08,19.97,16.78,0,110.6,13.25,19.90,102.2
"2010-10-15 01:11:00",248123,3.934,140,0.473,0.039,18.39,107.7365,19.08,19.97,16.79,0,110.6,13.25,19.90,102.0
"2010-10-15 01:11:30",248124,3.955,140.5,0.399,0.021,18.32,107.7365,19.08,19.98,16.79,0,110.6,13.25,19.90,102.5
"2010-10-15 01:12:00",248125,3.902,140.7,0.037,0.032,18.33,107.7365,19.08,19.97,16.75,0,110.6,13.25,19.90,102.7
"2010-10-15 01:12:30",248126,3.852,141,0.464,0.033,18.39,107.7365,19.08,19.97,16.71,0,110.6,13.25,19.90,103.0
"2010-10-15 01:13:00",248127,3.864,139.8,0.396,0.022,18.48,107.7365,19.08,19.97,16.7,0,110.6,13.25,19.90,101.8
"2010-10-15 01:13:30",248128,3.951,140,0.497,0.042,18.34,107.7365,19.08,19.98,16.7,0,110.6,13.25,19.90,102.0
"2010-10-15 01:14:00",248129,4.018,140.9,0.449,0.012,18.3,107.7365,19.08,19.96,16.69,0,110.6,13.25,19.90,102.9
"2010-10-15 01:14:30",248130,4.045,140.7,0.176,0.051,18.32,107.7365,19.08,19.96,16.69,0,110.6,13.25,19.90,102.7
"2010-10-15 01:15:00",248131,4.118,141.3,0.609,0.032,18.4,107.7365,19.08,19.97,16.66,0,110.6,13.25,19.90,103.3
"2010-10-15 01:15:30",248132,4.136,141.9,0.399,0.025,18.44,107.7365,19.08,19.97,16.51,0,110.6,13.25,19.90,103.9
"2010-10-15 01:16:00",248133,4.16,141.7,0.267,0.039,18.54,107.7365,19.08,19.95,16.48,0,110.6,13.25,19.90,103.7
"2010-10-15 01:16:30",248134,4.271,141.7,0.034,0.049,18.84,107.7365,19.08,19.96,16.38,0,110.6,13.26,19.90,103.7
"2010-10-15 01:17:00",248135,4.353,141.2,0.497,0.014,18.93,107.7351,19.08,19.95,16.36,0,110.6,13.26,19.90,103.2
"2010-10-15 01:17:30",248136,4.318,143.6,1.24,0.06,18.7,107.734,19.08,19.96,16.2,0,110.6,13.25,19.90,105.6
"2010-10-15 01:18:00",248137,4.201,143.8,0.37,0.031,18.85,107.7365,19.08,19.97,16.1,0,110.6,13.25,19.90,105.8
"2010-10-15 01:18:30",248138,4.122,143.7,0.319,0.04,18.66,107.7368,19.08,19.96,16.06,0,110.6,13.25,19.90,105.7
"2010-10-15 01:19:00",248139,4.044,143.9,0.279,0.037,18.56,107.7371,19.09,19.97,16.03,0,110.6,13.25,19.90,105.9
"2010-10-15 01:19:30",248140,3.973,143.2,0.483,0.031,18.37,107.7404,19.09,19.96,16.02,0,110.6,13.25,19.91,105.2
"2010-10-15 01:20:00",248141,3.977,142.8,0.028,0.035,18.38,107.7423,19.1,19.97,16,0,110.6,13.25,19.92,104.8
"2010-10-15 01:20:30",248142,3.987,142.8,0.196,0.034,18.35,107.7426,19.1,19.97,15.99,0,110.6,13.25,19.92,104.8
"2010-10-15 01:21:00",248143,4.032,143.4,0.589,0.02,18.47,107.7432,19.1,19.98,15.96,0,110.6,13.25,19.92,105.4
"2010-10-15 01:21:30",248144,4.131,144.7,0.573,0.031,18.8,107.7477,19.11,19.97,15.91,0,110.6,13.25,19.93,106.7
"2010-10-15 01:22:00",248145,4.147,145.3,0.549,0.022,18.9,107.7495,19.12,19.98,15.87,0,110.6,13.25,19.94,107.3
"2010-10-15 01:22:30",248146,4.212,144.7,0.619,0.025,18.78,107.7523,19.12,19.99,15.84,0,110.6,13.25,19.94,106.7
"2010-10-15 01:23:00",248147,4.216,144.7,0.55,0.032,18.77,107.7532,19.13,19.99,15.8,0,110.6,13.25,19.95,106.7
"2010-10-15 01:23:30",248148,4.207,145.2,0.852,0.032,18.74,107.7553,19.13,19.99,15.78,0,110.6,13.26,19.95,107.2
"2010-10-15 01:24:00",248149,4.186,147.1,0.515,0.032,18.77,107.7583,19.14,19.99,15.85,0,110.6,13.26,19.96,109.1
"2010-10-15 01:24:30",248150,4.159,147.8,0.337,0.033,18.74,107.7598,19.14,19.99,15.87,0,110.6,13.26,19.96,109.8
"2010-10-15 01:25:00",248151,4.118,146.9,0.538,0.037,18.87,107.7617,19.15,20,15.85,0,110.6,13.26,19.97,108.9
"2010-10-15 01:25:30",248152,4.067,146.9,0.429,0.05,18.86,107.7629,19.15,20.01,15.78,0,110.6,13.26,19.97,108.9
"2010-10-15 01:26:00",248153,4.164,146.3,0.513,0.029,18.9,107.7635,19.15,20.02,15.74,0,110.6,13.26,19.97,108.3
"2010-10-15 01:26:30",248154,4.212,145.3,0.481,0.028,18.79,107.7638,19.15,20.01,15.67,0,110.6,13.26,19.97,107.3
"2010-10-15 01:27:00",248155,4.235,145.1,0.516,0.029,18.72,107.7638,19.15,20.01,15.63,0,110.6,13.26,19.97,107.1
"2010-10-15 01:27:30",248156,4.252,144.1,0.324,0.033,18.82,107.7644,19.16,20.01,15.55,0,110.6,13.26,19.97,106.1
"2010-10-15 01:28:00",248157,4.318,145.3,0.479,0.033,18.4,107.7659,19.16,20,15.54,0,110.6,13.26,19.98,107.3
"2010-10-15 01:28:30",248158,4.356,144.6,0.263,0,18.36,107.7656,19.16,20,15.56,0,110.6,13.26,19.98,106.6
"2010-10-15 01:29:00",248159,4.365,144.7,0.4,0.021,18.34,107.7641,19.15,19.99,15.54,0,110.6,13.26,19.97,106.7
"2010-10-15 01:29:30",248160,4.397,144.5,0.042,0.025,18.31,107.7653,19.16,19.99,15.5,0,110.6,13.26,19.98,106.5
"2010-10-15 01:30:00",248161,4.401,144.3,0.274,0.023,18.33,107.7665,19.16,20,15.45,0,110.6,13.26,19.98,106.3
"2010-10-15 01:30:30",248162,4.386,144.3,0.302,0.028,18.36,107.7671,19.16,20,15.42,0,110.6,13.26,19.98,106.3
"2010-10-15 01:31:00",248163,4.406,143.6,0.396,0.017,18.4,107.7677,19.16,19.99,15.34,0,110.6,13.26,19.98,105.6
"2010-10-15 01:31:30",248164,4.38,142.8,0.189,0.028,18.51,107.768,19.16,20.01,15.3,0,110.6,13.26,19.98,104.8
"2010-10-15 01:32:00",248165,4.403,142.9,0.362,0.021,18.48,107.7683,19.17,20,15.31,0,110.6,13.26,19.98,104.9
"2010-10-15 01:32:30",248166,4.406,143.7,0.266,0.017,18.36,107.7699,19.17,19.99,15.3,0,110.6,13.26,19.99,105.7
"2010-10-15 01:33:00",248167,4.386,143.9,0.17,0.028,18.36,107.7711,19.17,19.99,15.3,0,110.6,13.26,19.99,105.9
"2010-10-15 01:33:30",248168,4.367,144.1,0.327,0.023,18.38,107.7711,19.17,20,15.31,0,110.6,13.26,19.99,106.1
"2010-10-15 01:34:00",248169,4.4,143,0.424,0.024,18.45,107.7717,19.17,20,15.26,0,110.6,13.26,19.99,105.0
"2010-10-15 01:34:30",248170,4.418,142.8,0.028,0.006,18.38,107.7681,19.16,20,15.23,0,110.6,13.25,19.98,104.8
"2010-10-15 01:35:00",248171,4.428,143.5,0.584,0.019,18.35,107.7615,19.15,19.99,15.23,0,110.6,13.26,19.97,105.5
"2010-10-15 01:35:30",248172,4.423,144.4,0.256,0.004,18.29,107.7554,19.13,19.97,15.25,0,110.6,13.26,19.95,106.4
"2010-10-15 01:36:00",248173,4.398,145.4,0.703,0.032,18.32,107.7537,19.13,19.97,15.27,0,110.6,13.26,19.95,107.4
"2010-10-15 01:36:30",248174,4.352,145.7,0.366,0.028,18.37,107.7526,19.13,19.99,15.31,0,110.6,13.26,19.94,107.7
"2010-10-15 01:37:00",248175,4.299,145.7,0.373,0.02,18.44,107.754,19.13,19.99,15.28,0,110.6,13.26,19.95,107.7
"2010-10-15 01:37:30",248176,4.241,145.6,0.028,0.035,18.74,107.7571,19.14,19.98,15.27,0,110.6,13.26,19.96,107.6
"2010-10-15 01:38:00",248177,4.164,145.4,0.421,0.02,18.95,107.754,19.13,19.98,15.26,0,110.6,13.26,19.95,107.4
"2010-10-15 01:38:30",248178,4.15,145.2,0.493,0.019,18.92,107.7532,19.13,19.98,15.25,0,110.6,13.26,19.95,107.2
"2010-10-15 01:39:00",248179,4.154,145.4,0.36,0.01,18.91,107.7498,19.12,19.99,15.26,0,110.6,13.26,19.94,107.4
"2010-10-15 01:39:30",248180,4.15,145.6,0.195,0.004,18.94,107.7473,19.11,19.97,15.22,0,110.6,13.26,19.93,107.6
"2010-10-15 01:40:00",248181,4.155,146,0.529,0.019,18.92,107.747,19.11,19.99,15.16,0,110.6,13.26,19.93,108.0
"2010-10-15 01:40:30",248182,4.224,146.4,0.468,0.014,18.68,107.7464,19.11,19.97,15.07,0,110.6,13.26,19.93,108.4
"2010-10-15 01:41:00",248183,4.208,146.7,0.04,0.026,18.71,107.7467,19.11,19.98,15.07,0,110.6,13.26,19.93,108.7
"2010-10-15 01:41:30",248184,4.154,147.3,0.533,0.029,18.85,107.7476,19.11,19.98,15.12,0,110.6,13.26,19.93,109.3
"2010-10-15 01:42:00",248185,4.034,147.7,0.037,0.044,18.89,107.7492,19.12,19.97,15.15,0,110.6,13.27,19.94,109.7
"2010-10-15 01:42:30",248186,3.95,147.9,0.365,0.031,18.73,107.7543,19.13,19.97,15.19,0,110.6,13.27,19.95,109.9
"2010-10-15 01:43:00",248187,3.957,147.8,0.268,0.004,18.65,107.7644,19.16,19.98,15.17,0,110.6,13.27,19.97,109.8
"2010-10-15 01:43:30",248188,3.964,147.9,0.428,0.028,18.76,107.7704,19.17,20,15.14,0,110.6,13.27,19.99,109.9
"2010-10-15 01:44:00",248189,4.021,149,0.509,0.018,18.9,107.7706,19.17,19.99,15.12,0,110.6,13.27,19.99,111.0
"2010-10-15 01:44:30",248190,4.085,149.6,0.45,0.027,18.87,107.7687,19.17,19.99,15.09,0,110.6,13.26,19.99,111.6
"2010-10-15 01:45:00",248191,4.093,149.6,0.444,0.011,18.68,107.7619,19.15,20,15.07,0,110.6,13.27,19.97,111.6
"2010-10-15 01:45:30",248192,4.131,149.6,0.451,0.026,18.61,107.7591,19.14,19.98,15.07,0,110.6,13.27,19.96,111.6
"2010-10-15 01:46:00",248193,4.141,148.8,0.028,0.019,18.69,107.7512,19.12,19.97,15.09,0,110.6,13.27,19.94,110.8
"2010-10-15 01:46:30",248194,4.091,149.6,0.425,0.012,18.74,107.7473,19.11,19.99,15.07,0,110.6,13.27,19.93,111.6
"2010-10-15 01:47:00",248195,4.1,148.9,0.456,0.03,18.8,107.7456,19.11,19.98,15.07,0,110.6,13.27,19.93,110.9
"2010-10-15 01:47:30",248196,4.148,148,0.503,0.016,18.59,107.7405,19.09,19.97,15.14,0,110.6,13.27,19.91,110.0
"2010-10-15 01:48:00",248197,4.15,149.1,0.503,0.01,18.37,107.7391,19.09,19.98,15.12,0,110.6,13.27,19.91,111.1